Location: *
(48.8489°N, 2.3218°E)
Time: 16:50:41
(UTC+00:00)

Cosmos 2218 Rocket - Pass Details

Date: 23 August 2019
Orbit: 957 x 1005 km, 82.9° (Epoch: 14 September)

Event Time Altitude Azimuth Distance (km) Brightness Sun altitude
Rises 22:46:08 0° 351° (N) 3,727 8.3 -28.1°
Reaches altitude 10° 22:48:40 10° 354° (N) 2,779 7.3 -28.2°
Maximum altitude 22:55:04 74° 79° (E) 1,047 4.0 -28.5°
Enters shadow 22:55:27 71° 109° (ESE) 1,059 3.9 -28.5°
